GW7004 Weather Reports


Display with metric or nautical units.
time (UTC)temp
F
wind
direction
speed
MPH
gust
MPH
rain 1hr
in
rain 24hr
in
rain mn
in
humidity
%
barometer
mb
20260906223025 81 335 10.0 17.0 0.00 0.00 0.00 48 1011.2
20260906221534 82 356 12.0 16.0 0.00 0.00 0.00 48 1011.4
20260906220007 82 349 11.0 16.0 0.00 0.00 0.00 46 1011.6
20260906214515 81 338 10.0 16.0 0.00 0.00 0.00 47 1011.8
20260906213024 82 353 11.0 15.0 0.00 0.00 0.00 47 1011.8
20260906211528 81 1 10.0 16.0 0.00 0.00 0.00 47 1011.9
20260906210037 81 343 7.0 13.0 0.00 0.00 0.00 48 1012.2
20260906204514 80 338 9.0 14.0 0.00 0.00 0.00 48 1012.5
20260906203018 80 338 8.0 14.0 0.00 0.00 0.00 47 1012.8
20260906201554 80 338 8.0 12.0 0.00 0.00 0.00 47 1013.0
20260906200029 79 1 8.0 12.0 0.00 0.00 0.00 47 1013.5
20260906194510 79 1 7.0 14.0 0.00 0.00 0.00 46 1013.8
20260906193015 79 344 4.0 10.0 0.00 0.00 0.00 45 1014.0
20260906191523 78 359 6.0 9.0 0.00 0.00 0.00 43 1014.3
20260906190034 77 3 4.0 9.0 0.00 0.00 0.00 46 1014.4
20260906184532 77 9 7.0 10.0 0.00 0.00 0.00 45 1014.8
20260906183017 76 359 6.0 11.0 0.00 0.00 0.00 46 1015.1
20260906181536 75 339 6.0 12.0 0.00 0.00 0.00 51 1015.4
20260906180027 74 360 6.0 10.0 0.00 0.00 0.00 53 1015.7
20260906174534 73 354 6.0 9.0 0.00 0.00 0.00 53 1016.0
20260906173032 72 4 7.0 9.0 0.00 0.00 0.00 54 1016.3
20260906171516 72 358 5.0 9.0 0.00 0.00 0.00 54 1016.4
20260906170025 70 345 5.0 9.0 0.00 0.00 0.00 56 1016.6
20260906164531 70 1 5.0 10.0 0.00 0.00 0.00 57 1016.7
20260906163044 69 15 7.0 10.0 0.00 0.00 0.00 58 1016.7
20260906161536 69 1 5.0 8.0 0.00 0.00 0.00 59 1016.5
20260906160022 67 360 4.0 6.0 0.00 0.00 0.00 60 1016.6
20260906154504 67 1 3.0 6.0 0.00 0.00 0.00 60 1016.7
20260906153009 66 49 3.0 4.0 0.00 0.00 0.00 60 1016.8
20260906151512 66 80 0.0 4.0 0.00 0.00 0.00 59 1016.9
20260906150025 64 58 1.0 3.0 0.00 0.00 0.00 59 1017.1
20260906144504 64 70 0.0 1.0 0.00 0.00 0.00 60 1017.3
20260906143004 62 156 0.0 4.0 0.00 0.00 0.00 63 1017.4
20260906141512 61 158 2.0 4.0 0.00 0.00 0.00 63 1017.3
20260906140019 60 168 1.0 3.0 0.00 0.00 0.00 64 1017.2
20260906134523 59 181 2.0 3.0 0.00 0.00 0.00 66 1017.3
20260906133005 58 307 0.0 2.0 0.00 0.00 0.00 68 1017.0
20260906131505 55 319 0.0 0.0 0.00 0.00 0.00 73 1017.1
20260906130018 54 340 0.0 0.0 0.00 0.00 0.00 73 1017.0
20260906124523 54 340 0.0 0.0 0.00 0.00 0.00 73 1017.1
20260906123036 55 340 0.0 0.0 0.00 0.00 0.00 72 1016.8
20260906121508 57 340 0.0 0.0 0.00 0.00 0.00 68 1017.0
20260906120010 59 340 1.0 5.0 0.00 0.00 0.00 64 1016.9
20260906114523 59 356 1.0 5.0 0.00 0.00 0.00 64 1016.9
20260906113027 59 352 2.0 5.0 0.00 0.00 0.00 64 1017.0
20260906111530 60 360 5.0 7.0 0.00 0.00 0.00 62 1017.0
20260906110010 61 355 6.0 9.0 0.00 0.00 0.00 62 1016.7
20260906104515 60 351 6.0 9.0 0.00 0.00 0.00 63 1016.7
20260906103023 60 359 2.0 5.0 0.00 0.00 0.00 61 1016.7
20260906101527 61 353 5.0 9.0 0.00 0.00 0.00 60 1016.5
20260906100038 61 359 6.0 10.0 0.00 0.00 0.00 61 1016.3
20260906094513 60 351 3.0 4.0 0.00 0.00 0.00 62 1016.8
20260906093033 61 340 1.0 6.0 0.00 0.00 0.00 60 1016.7
20260906091529 61 13 6.0 7.0 0.00 0.00 0.00 60 1016.7
20260906090029 62 346 2.0 10.0 0.00 0.00 0.00 59 1016.9
20260906084532 62 4 8.0 10.0 0.00 0.00 0.00 57 1016.4
20260906083021 63 1 5.0 8.0 0.00 0.00 0.00 55 1016.7
20260906081541 66 4 7.0 14.0 0.00 0.00 0.00 50 1016.5
20260906080010 67 323 6.0 18.0 0.00 0.00 0.00 49 1016.9
20260906074510 67 340 10.0 14.0 0.00 0.00 0.00 48 1016.6
20260906073031 67 352 11.0 15.0 0.00 0.00 0.00 48 1016.4
20260906071512 67 334 8.0 12.0 0.00 0.00 0.00 48 1016.5
20260906070014 66 324 6.0 11.0 0.00 0.00 0.00 48 1016.3
20260906064504 66 314 6.0 11.0 0.00 0.00 0.00 48 1016.4
20260906063013 67 349 5.0 13.0 0.00 0.00 0.00 47 1016.6
20260906061515 67 345 9.0 11.0 0.00 0.00 0.00 47 1016.5
20260906060015 68 343 8.0 13.0 0.00 0.00 0.00 47 1016.6
20260906054521 67 348 7.0 11.0 0.00 0.00 0.00 47 1016.6
20260906053009 68 342 7.0 12.0 0.00 0.00 0.00 46 1016.7
20260906051520 68 355 8.0 11.0 0.00 0.00 0.00 45 1016.6
20260906050017 69 340 6.0 9.0 0.00 0.00 0.00 44 1016.6
20260906044518 70 346 9.0 13.0 0.00 0.00 0.00 43 1016.6
20260906043024 70 340 8.0 10.0 0.00 0.00 0.00 42 1016.6
20260906041512 72 354 7.0 14.0 0.00 0.00 0.00 41 1016.6
20260906040020 72 348 11.0 14.0 0.00 0.00 0.00 41 1016.4
20260906034525 72 359 8.0 13.0 0.00 0.00 0.00 40 1016.5
20260906033020 72 338 7.0 14.0 0.00 0.00 0.00 39 1016.4
20260906031518 73 348 11.0 15.0 0.00 0.00 0.00 38 1016.3
20260906030016 74 340 10.0 16.0 0.00 0.00 0.00 37 1016.1
20260906024525 74 349 13.0 17.0 0.00 0.00 0.00 37 1015.9
20260906023024 75 342 10.0 16.0 0.00 0.00 0.00 37 1015.7
20260906021524 75 334 12.0 16.0 0.00 0.00 0.00 36 1015.6
20260906020028 74 358 12.0 15.0 0.00 0.00 0.00 37 1015.3
20260906014528 75 348 13.0 15.0 0.00 0.00 0.00 36 1015.3
20260906013024 76 359 9.0 16.0 0.00 0.00 0.00 35 1015.4
20260906011526 76 333 9.0 15.0 0.00 0.00 0.00 34 1015.4
20260906010024 76 343 9.0 13.0 0.00 0.00 0.00 35 1015.4
20260906004517 77 346 9.0 13.0 0.00 0.00 0.00 33 1015.3
20260906003021 78 1 8.0 14.0 0.00 0.00 0.00 35 1015.2
20260906001528 79 359 8.0 16.0 0.00 0.00 0.00 34 1015.1
20260906000026 80 342 11.0 16.0 0.00 0.00 0.00 32 1015.2
20260905234526 80 347 10.0 17.0 0.00 0.00 0.00 32 1015.2
20260905233020 80 350 12.0 16.0 0.00 0.00 0.00 31 1015.3
20260905231527 81 360 12.0 16.0 0.00 0.00 0.00 31 1015.2
20260905230029 81 356 12.0 16.0 0.00 0.00 0.00 31 1015.2
20260905224534 81 347 12.0 17.0 0.00 0.00 0.00 31 1015.3